Location: Bronnegerveen
(52.9548°N, 6.8388°E)
Time: 01:42:54
(UTC+00:00)

ATLAS 3B R/B - Pass Details

Date: 15 June 2025
Orbit: 935 x 1258 km, 63.8° (Epoch: 07 July)

Event Time Altitude Azimuth Distance (km) Brightness Sun altitude
Rises 00:51:09 0° 314° (NW) 4,218 6.2 -11.9°
Reaches altitude 10° 00:54:00 10° 311° (NW) 3,250 5.5 -11.7°
Maximum altitude 01:01:43 60° 235° (SW) 1,409 3.1 -11.3°
Drops below altitude 10° 01:09:09 10° 158° (SSE) 3,130 4.7 -10.9°
Sets 01:11:51 0° 155° (SSE) 4,053 5.3 -10.8°
